Overview Statistics Trail Chart Weather Telemetry Raw packets
 

This is the latest recevied weather packets stored in our database for station/object KC9DRE. If no packets are shown the sender has not sent any weather packets the latest 10 day(s).

<< 62 63 64 65 66 67 68 >>
Time Temp. Humidity Pressure Rain* Wind** Luminosity Snow
1777500523 19.44° C 52% 1013.1 hPa 0 mm - 294 W/m² -
1777500219 19.44° C 50% 1012.9 hPa 0 mm - 310 W/m² -
1777499915 19.44° C 53% 1013 hPa 0 mm - 330 W/m² -
1777499612 19.44° C 53% 1013 hPa 0 mm - 351 W/m² -
1777499309 18.89° C 54% 1012.9 hPa 0 mm - 377 W/m² -
1777499007 18.89° C 56% 1013.1 hPa 0 mm - 390 W/m² -
1777498703 19.44° C 56% 1013.2 hPa 0 mm - 134 W/m² -
1777498400 20° C 53% 1013.1 hPa 0 mm - 150 W/m² -
1777498096 18.89° C 56% 1013 hPa 0 mm - 487 W/m² -
1777497793 17.78° C 55% 1013 hPa 0 mm - 467 W/m² -
1777497490 18.33° C 56% 1013.1 hPa 0 mm - 121 W/m² -
1777497186 19.44° C 55% 1012.8 hPa 0 mm - 116 W/m² -
1777496883 20.56° C 55% 1012.8 hPa 0 mm - 251 W/m² -
1777496580 20° C 52% 1012.6 hPa 0 mm - 554 W/m² -
1777496276 19.44° C 55% 1012.8 hPa 0 mm - 539 W/m² -
1777495972 18.89° C 53% 1012.8 hPa 0 mm - 601 W/m² -
1777495668 18.33° C 57% 1012.8 hPa 0 mm - 264 W/m² -
1777495364 18.33° C 57% 1012.8 hPa 0 mm - 120 W/m² -
1777495062 18.89° C 56% 1012.9 hPa 0 mm - 658 W/m² -
1777494759 20° C 53% 1012.7 hPa 0 mm - 181 W/m² -
1777494456 21.11° C 52% 1012.7 hPa 0 mm - 562 W/m² -
1777494152 20.56° C 56% 1012.7 hPa 0 mm - 742 W/m² -
1777493850 20° C 59% 1012.8 hPa 0 mm - 799 W/m² -
1777493548 19.44° C 58% 1012.7 hPa 0 mm - 758 W/m² -
1777493245 20° C 60% 1012.8 hPa 0 mm - 243 W/m² -

* Rain latest hour (hover to see other rain measurements)
** Current wind speed in m/s (hover to see current wind gust speed)